Regional Weather Roundup
Issued by NWS

Home | Current Version | Previous Version | Text Only | Print | Product List | Glossary On
Versions: 1 2 3 4 5 6 7 8 9 10 11 12 13 14 15 16 17 18 19 20 21 22 23 24 25 26 27 28 29 30 31 32 33 34 35 36 37 38 39 40 41 42 43 44 45 46 47 48 49 50
000
ASUS45 KBOU 250907
RWRCO

WEATHER ROUNDUP FOR COLORADO
NATIONAL WEATHER SERVICE DENVER/BOULDER CO
300 AM MDT FRI JUL 25 2014

NOTE: "FAIR" INDICATES FEW OR NO CLOUDS BELOW 12000 FEET WITH NO
SIGNIFICANT WEATHER AND/OR OBSTRUCTIONS TO VISIBILITY.

COZ001>005-013-030-031-251000-
...NORTHWEST COLORADO...

CITY           SKY/WX    TMP DP  RH WIND       PRES   REMARKS
CRAIG          LGT RAIN  54  54 100 SE7       30.22F
HAYDEN         CLOUDY    64  45  48 N12       30.27R
MEEKER         MOCLDY    56  51  84 NE3       30.21F
MOUNT WERNER   NOT AVBL
STEAMBOAT SPGS MOCLDY    57  47  69 CALM      30.26S
WALDEN         CLEAR     50  43  76 E6        30.33F
$$

COZ006>008-011-251000-
...WEST CENTRAL VALLEYS...

CITY           SKY/WX    TMP DP  RH WIND       PRES   REMARKS
GRAND JUNCTION PTCLDY    75  51  43 SE15      30.11S
MONTROSE       MOCLDY    65  52  62 SE7       30.22S
EAGLE          MOCLDY    57  55  94 E5        30.32S
RIFLE          PTCLDY    64  49  57 CALM      30.17F
DELTA          MOCLDY    69  52  55 E6        30.18S
NUCLA          NOT AVBL
$$

COZ017>023-064>068-251000-
...SOUTHWEST COLORADO...

CITY           SKY/WX    TMP DP  RH WIND       PRES   REMARKS
DURANGO        CLOUDY    68  50  52 N6        30.28F
CORTEZ         MOCLDY    69  52  54 S5        30.21S
PAGOSA SPRINGS CLOUDY    65  48  55 CALM      30.36F
TELLURIDE      NOT AVBL
WOLF CREEK PAS NOT AVBL
$$

COZ009-010-012-014-032>034-037-058>063-251000-
...CENTRAL COLORADO...

CITY           SKY/WX    TMP DP  RH WIND       PRES   REMARKS
ASPEN          MOCLDY    54  48  80 SW6       30.35F
BUENA VISTA    CLOUDY    61  45  55 NW9       30.36S
COPPER MTN     MOCLDY    54  37  54 S8        30.66F
BERTHOUD PASS  FAIR      46  32  57 NW16      30.69S
COTTONWOOD PAS CLOUDY    61  41  48 W7        30.49F
GUNNISON       CLOUDY    55  46  71 N5        30.41F
KREMMLING      MOCLDY    59  45  58 CALM      30.33R
LEADVILLE      CLOUDY    48  41  76 NE3       30.51F
MONARCH PASS   CLOUDY    46  41  81 W26       30.76F
SALIDA         CLOUDY   N/A N/A N/A W5        30.40F
SUNLIGHT       PTCLDY    54  45  71 CALM      30.58F
WILKERSON PASS MOCLDY    54  37  54 W10G20    30.60F
$$

COZ069>075-251000-
...SAN LUIS VALLEY/SANGRE DE CRISTO MOUNTAINS...

CITY           SKY/WX    TMP DP  RH WIND       PRES   REMARKS
ALAMOSA        MOCLDY    62  51  67 CALM      30.35F
LA VETA PASS   CLOUDY    54  41  62 SW13G24   30.49F
SAGUACHE       CLOUDY    59  52  77 NW6       30.38F
$$

COZ035-036-038>040-251000-
...NORTHERN COLORADO FRONT RANGE...

CITY           SKY/WX    TMP DP  RH WIND       PRES   REMARKS
DENVER INTL AP MOCLDY    72  49  44 SW13      30.05F
DMNS CITY PARK   N/A     70  51  50 S6        30.05S
AURORA         MOCLDY    68  51  55 S8        30.09S
FRONT RANGE AP NOT AVBL
ERIE MUNI ARPT MOCLDY    78  42  27 W6        30.03S
BOULDER MUN AP MOCLDY    81  41  24 W7        30.04S
CENTENNIAL     MOCLDY    66  50  56 S5        30.10F
BROOMFIELD     MOCLDY    77  43  29 N3        30.08S
FORT COLLINS   PTCLDY    66  54  63 N9        30.04S
LONGMONT       PTCLDY    69  54  58 CALM      30.04S
$$

COZ041-046-047-076>085-087-088-251000-
...PIKES PEAK/PALMER DIVIDE AND SOUTHERN FOOTHILLS...

CITY           SKY/WX    TMP DP  RH WIND       PRES   REMARKS
COLO. SPRINGS  MOCLDY    71  50  47 CALM      30.15S
A. F. ACADEMY  PTCLDY    70  49  46 VRB5      30.17S
ELLICOTT       PTCLDY    64  52  64 CALM      30.13F
FALCON         PTCLDY    67  47  48 W9        30.20S
FORT CARSON    PTCLDY    67  55  64 NW5       30.11F
LIMON          PTCLDY    60  56  86 N5        30.07S
MONUMENT HILL  MOCLDY    61  48  63 W7        30.20S
TRINIDAD       CLEAR     70  46  42 W13       30.14F
$$

COZ042>045-048>051-090-091-251000-
...NORTHEAST COLORADO...

CITY           SKY/WX    TMP DP  RH WIND       PRES   REMARKS
GREELEY ARPT   CLEAR     63  54  72 N6        30.01S
AKRON          PTCLDY    69  52  54 W10       29.98S
BURLINGTON     CLOUDY    76  53  44 CALM      29.95S
WRAY             N/A     69  56  62 W10       29.89S
STERLING       PTCLDY    64  61  88 CALM      29.93S
HOLYOKE        PTCLDY    70  57  64 W8        29.89S
FORT MORGAN    PTCLDY    69  51  52 W9        29.98S
$$

COZ086-089-092>099-251000-
...SOUTHEAST COLORADO...

CITY           SKY/WX    TMP DP  RH WIND       PRES   REMARKS
PUEBLO         PTCLDY    70  52  52 CALM      30.03F
LA JUNTA       MOCLDY    75  53  46 W10       29.98F
LAMAR          MOCLDY    77  52  41 W12       29.91R
SPRINGFIELD      N/A     75  49  39 SW14      30.03F
$$



USA.gov is the U.S. government's official web portal to all federal, state and local government web resources and services.